AAL2992 KDFW-KGSP

Flight info

Callsign AAL2992
Flight time 1h 46m
Altitude 35000
Route FORCK3 FORCK ELD IZAAC Q30 VLKNN THRSR BESTT WORXS2
Aircraft B738/M-SDE2E3FGHIRWXY/LB1

Departure

Time 2026-04-19 03:25
Airport Dallas Fort Worth International Airport (KDFW)

Arrival

Time 2026-04-19 05:12
Airport Greenville-Spartanburg International Airport (KGSP)
Time Latitude Longitude Altitude Speed Heading
2026-04-19 03:17 32.89944 -97.03487 586 ft 0 kts 143°
2026-04-19 03:20 32.89901 -97.03445 586 ft 14 kts 136°
2026-04-19 03:20 32.89819 -97.03353 586 ft 18 kts 141°
2026-04-19 03:20 32.89704 -97.03317 585 ft 17 kts 180°
2026-04-19 03:21 32.89587 -97.03317 585 ft 17 kts 180°
2026-04-19 03:21 32.89464 -97.03317 584 ft 19 kts 178°
2026-04-19 03:21 32.89395 -97.03232 578 ft 15 kts 111°
2026-04-19 03:21 32.89287 -97.03196 575 ft 20 kts 180°
2026-04-19 03:22 32.89137 -97.03198 575 ft 22 kts 180°
2026-04-19 03:22 32.88980 -97.03199 569 ft 22 kts 180°
2026-04-19 03:22 32.88827 -97.03199 577 ft 22 kts 180°
2026-04-19 03:22 32.88669 -97.03200 574 ft 24 kts 180°
2026-04-19 03:23 32.88501 -97.03201 574 ft 24 kts 179°
2026-04-19 03:23 32.88342 -97.03202 578 ft 23 kts 180°
2026-04-19 03:23 32.88180 -97.03203 574 ft 24 kts 180°
2026-04-19 03:23 32.88014 -97.03203 577 ft 24 kts 180°
2026-04-19 03:24 32.87913 -97.03181 577 ft 12 kts 129°
2026-04-19 03:24 32.87903 -97.03067 575 ft 15 kts 88°
2026-04-19 03:24 32.87973 -97.03009 575 ft 18 kts
2026-04-19 03:24 32.88247 -97.03005 578 ft 73 kts
2026-04-19 03:25 32.88991 -97.03000 576 ft 138 kts
2026-04-19 03:25 32.90084 -97.02981 889 ft 165 kts
2026-04-19 03:25 32.91230 -97.02968 1721 ft 163 kts
2026-04-19 03:25 32.92318 -97.02958 2685 ft 156 kts
2026-04-19 03:26 32.93435 -97.02771 3177 ft 173 kts 18°
2026-04-19 03:26 32.94644 -97.02264 3476 ft 196 kts 20°
2026-04-19 03:26 32.96007 -97.01738 3811 ft 213 kts 18°
2026-04-19 03:26 32.97466 -97.01177 4246 ft 231 kts 22°
2026-04-19 03:27 32.98839 -97.00093 4724 ft 247 kts 42°
2026-04-19 03:27 32.99965 -96.98537 5554 ft 252 kts 52°
2026-04-19 03:27 33.00891 -96.96740 6401 ft 253 kts 57°
2026-04-19 03:27 33.01599 -96.94816 7172 ft 263 kts 75°
2026-04-19 03:28 33.01653 -96.92535 7722 ft 278 kts 91°
2026-04-19 03:28 33.01422 -96.90254 8605 ft 278 kts 94°
2026-04-19 03:28 33.01101 -96.87941 9230 ft 288 kts 95°
2026-04-19 03:28 33.00587 -96.85564 9834 ft 302 kts 105°
2026-04-19 03:29 32.99763 -96.83237 10432 ft 312 kts 110°
2026-04-19 03:29 32.98796 -96.80783 10905 ft 326 kts 111°
2026-04-19 03:29 32.97794 -96.78250 11124 ft 348 kts 112°
2026-04-19 03:29 32.96739 -96.75588 11440 ft 363 kts 113°
2026-04-19 03:30 32.95637 -96.72838 11973 ft 372 kts 115°
2026-04-19 03:30 32.94501 -96.70044 12576 ft 378 kts 115°
2026-04-19 03:30 32.93363 -96.67245 13171 ft 384 kts 116°
2026-04-19 03:30 32.92195 -96.64360 13760 ft 390 kts 117°
2026-04-19 03:31 32.91013 -96.61430 14324 ft 396 kts 117°
2026-04-19 03:31 32.89818 -96.58462 14917 ft 399 kts 117°
2026-04-19 03:31 32.88617 -96.55473 15556 ft 402 kts 118°
2026-04-19 03:31 32.87407 -96.52463 16172 ft 405 kts 118°
2026-04-19 03:32 32.86186 -96.49429 16775 ft 408 kts 118°
2026-04-19 03:32 32.84956 -96.46374 17373 ft 412 kts 119°
2026-04-19 03:32 32.83710 -96.43278 17862 ft 418 kts 120°
2026-04-19 03:32 32.82445 -96.40145 18437 ft 422 kts 120°
2026-04-19 03:33 32.81175 -96.36998 18970 ft 424 kts 120°
2026-04-19 03:33 32.80093 -96.33706 19459 ft 434 kts 105°
2026-04-19 03:33 32.79906 -96.30105 19936 ft 442 kts 85°
2026-04-19 03:33 32.80275 -96.26475 20460 ft 445 kts 83°
2026-04-19 03:34 32.80700 -96.22811 20895 ft 450 kts 83°
2026-04-19 03:34 32.81132 -96.19114 21334 ft 454 kts 83°
2026-04-19 03:34 32.81547 -96.15430 21787 ft 457 kts 83°
2026-04-19 03:34 32.81955 -96.11667 22251 ft 461 kts 84°
2026-04-19 03:35 32.82353 -96.07873 22677 ft 465 kts 84°
2026-04-19 03:35 32.82749 -96.04028 22995 ft 472 kts 84°
2026-04-19 03:35 32.83146 -96.00138 23403 ft 476 kts 85°
2026-04-19 03:35 32.83545 -95.96224 23857 ft 478 kts 85°
2026-04-19 03:36 32.83945 -95.92288 24231 ft 481 kts 85°
2026-04-19 03:36 32.84348 -95.88329 24601 ft 483 kts 85°
2026-04-19 03:36 32.84752 -95.84352 24963 ft 486 kts 85°
2026-04-19 03:36 32.85156 -95.80350 25320 ft 489 kts 85°
2026-04-19 03:37 32.85562 -95.76324 25677 ft 491 kts 85°
2026-04-19 03:37 32.85963 -95.72337 26019 ft 494 kts 85°
2026-04-19 03:37 32.86372 -95.68265 26346 ft 497 kts 86°
2026-04-19 03:37 32.86780 -95.64177 26686 ft 499 kts 86°
2026-04-19 03:38 32.87190 -95.60064 27058 ft 501 kts 86°
2026-04-19 03:38 32.87599 -95.55937 27398 ft 504 kts 86°
2026-04-19 03:38 32.88009 -95.51793 27719 ft 506 kts 86°
2026-04-19 03:38 32.88420 -95.47630 28044 ft 508 kts 86°
2026-04-19 03:39 32.88831 -95.43445 28355 ft 510 kts 86°
2026-04-19 03:39 32.89237 -95.39298 28663 ft 513 kts 86°
2026-04-19 03:39 32.89648 -95.35080 28966 ft 515 kts 86°
2026-04-19 03:39 32.90061 -95.30835 29271 ft 517 kts 86°
2026-04-19 03:40 32.90473 -95.26584 29596 ft 518 kts 86°
2026-04-19 03:40 32.90885 -95.22320 29887 ft 520 kts 86°
2026-04-19 03:40 32.91297 -95.18038 30151 ft 522 kts 86°
2026-04-19 03:40 32.91710 -95.13732 30400 ft 524 kts 87°
2026-04-19 03:41 32.92123 -95.09410 30616 ft 527 kts 87°
2026-04-19 03:41 32.92535 -95.05071 30802 ft 529 kts 87°
2026-04-19 03:41 32.92942 -95.00771 31032 ft 531 kts 87°
2026-04-19 03:41 32.93355 -94.96405 31324 ft 531 kts 87°
2026-04-19 03:42 32.93767 -94.92040 31584 ft 531 kts 88°
2026-04-19 03:42 32.94177 -94.87662 31797 ft 533 kts 88°
2026-04-19 03:42 32.94586 -94.83271 32014 ft 535 kts 88°
2026-04-19 03:42 32.94996 -94.78867 32262 ft 535 kts 88°
2026-04-19 03:43 32.95404 -94.74460 32517 ft 536 kts 88°
2026-04-19 03:43 32.95811 -94.70048 32744 ft 537 kts 88°
2026-04-19 03:43 32.96212 -94.65681 32954 ft 538 kts 88°
2026-04-19 03:43 32.96618 -94.61247 33193 ft 539 kts 88°
2026-04-19 03:44 32.97023 -94.56807 33442 ft 539 kts 88°
2026-04-19 03:44 32.97427 -94.52360 33601 ft 542 kts 89°
2026-04-19 03:44 32.97831 -94.47887 33762 ft 544 kts 89°
2026-04-19 03:44 32.98236 -94.43398 34019 ft 544 kts 89°
2026-04-19 03:45 32.98638 -94.38924 34297 ft 544 kts 89°
2026-04-19 03:45 32.99039 -94.34442 34518 ft 544 kts 89°
2026-04-19 03:45 32.99438 -94.29965 34722 ft 544 kts 89°
2026-04-19 03:45 32.99861 -94.25493 34934 ft 545 kts 86°
2026-04-19 03:46 33.00493 -94.21031 35149 ft 547 kts 83°
2026-04-19 03:46 33.01280 -94.16582 35275 ft 550 kts 82°
2026-04-19 03:46 33.02134 -94.12123 35267 ft 553 kts 81°
2026-04-19 03:47 33.03831 -94.03251 35287 ft 552 kts 82°
2026-04-19 03:47 33.05432 -93.94361 35302 ft 546 kts 83°
2026-04-19 03:48 33.06961 -93.85506 35294 ft 544 kts 83°
2026-04-19 03:48 33.08468 -93.76689 35276 ft 542 kts 83°
2026-04-19 03:49 33.09963 -93.67947 35280 ft 541 kts 83°
2026-04-19 03:49 33.11468 -93.59128 35278 ft 546 kts 83°
2026-04-19 03:50 33.12987 -93.50181 35288 ft 553 kts 83°
2026-04-19 03:50 33.14513 -93.41175 35300 ft 555 kts 83°
2026-04-19 03:51 33.16027 -93.32199 35312 ft 556 kts 83°
2026-04-19 03:51 33.17546 -93.23154 35308 ft 555 kts 83°
2026-04-19 03:52 33.19052 -93.14134 35313 ft 554 kts 83°
2026-04-19 03:52 33.20548 -93.05131 35293 ft 552 kts 83°
2026-04-19 03:53 33.22022 -92.96218 35278 ft 550 kts 83°
2026-04-19 03:53 33.23496 -92.87264 35254 ft 548 kts 83°
2026-04-19 03:54 33.24958 -92.78339 35323 ft 547 kts 83°
2026-04-19 03:54 33.26202 -92.69410 35319 ft 543 kts 88°
2026-04-19 03:55 33.27017 -92.60467 35302 ft 541 kts 89°
2026-04-19 03:55 33.27761 -92.51589 35274 ft 541 kts 89°
2026-04-19 03:56 33.28550 -92.42652 35256 ft 541 kts 89°
2026-04-19 03:56 33.29366 -92.33711 35241 ft 541 kts 89°
2026-04-19 03:57 33.30182 -92.24771 35267 ft 541 kts 88°
2026-04-19 03:57 33.30990 -92.15826 35249 ft 541 kts 88°
2026-04-19 03:58 33.31784 -92.06939 35263 ft 541 kts 89°
2026-04-19 03:58 33.32576 -91.97995 35265 ft 541 kts 89°
2026-04-19 03:59 33.33361 -91.89041 35261 ft 541 kts 88°
2026-04-19 03:59 33.34140 -91.80100 35273 ft 540 kts 88°
2026-04-19 04:00 33.34905 -91.71234 35270 ft 540 kts 88°
2026-04-19 04:00 33.35670 -91.62301 35273 ft 539 kts 89°
2026-04-19 04:01 33.36426 -91.53392 35276 ft 538 kts 89°
2026-04-19 04:01 33.37546 -91.40058 35248 ft 536 kts 88°
2026-04-19 04:02 33.38276 -91.31262 35270 ft 534 kts 88°
2026-04-19 04:02 33.39004 -91.22430 35281 ft 532 kts 89°
2026-04-19 04:03 33.39722 -91.13632 35286 ft 531 kts 89°
2026-04-19 04:03 33.40431 -91.04862 35302 ft 529 kts 89°
2026-04-19 04:04 33.41128 -90.96159 35301 ft 528 kts 89°
2026-04-19 04:04 33.41823 -90.87420 35252 ft 527 kts 89°
2026-04-19 04:05 33.42511 -90.78679 35251 ft 528 kts 89°
2026-04-19 04:05 33.43193 -90.69925 35231 ft 528 kts 89°
2026-04-19 04:06 33.43870 -90.61172 35235 ft 528 kts 89°
2026-04-19 04:06 33.44541 -90.52411 35222 ft 529 kts 89°
2026-04-19 04:07 33.45204 -90.43679 35218 ft 530 kts 89°
2026-04-19 04:07 33.45865 -90.34885 35229 ft 531 kts 88°
2026-04-19 04:08 33.46487 -90.26074 35249 ft 530 kts 91°
2026-04-19 04:08 33.46719 -90.17264 35269 ft 529 kts 94°
2026-04-19 04:09 33.46798 -90.08507 35268 ft 530 kts 94°
2026-04-19 04:09 33.46900 -89.99680 35163 ft 530 kts 93°
2026-04-19 04:10 33.47036 -89.90842 35147 ft 531 kts 93°
2026-04-19 04:10 33.47180 -89.81984 35155 ft 532 kts 93°
2026-04-19 04:11 33.47315 -89.73190 35154 ft 532 kts 94°
2026-04-19 04:11 33.47443 -89.64320 35138 ft 533 kts 94°
2026-04-19 04:12 33.47563 -89.55451 35141 ft 533 kts 94°
2026-04-19 04:12 33.47676 -89.46569 35121 ft 533 kts 94°
2026-04-19 04:13 33.47784 -89.37761 35113 ft 533 kts 94°
2026-04-19 04:13 33.47885 -89.28891 35115 ft 532 kts 94°
2026-04-19 04:14 33.47980 -89.20022 35088 ft 532 kts 94°
2026-04-19 04:14 33.48068 -89.11171 35115 ft 532 kts 94°
2026-04-19 04:15 33.48149 -89.02366 35192 ft 532 kts 94°
2026-04-19 04:15 33.48225 -88.93509 35223 ft 532 kts 94°
2026-04-19 04:16 33.48295 -88.84639 35212 ft 533 kts 94°
2026-04-19 04:16 33.48358 -88.75761 35221 ft 534 kts 95°
2026-04-19 04:17 33.48415 -88.66868 35256 ft 535 kts 95°
2026-04-19 04:17 33.48467 -88.57934 35257 ft 537 kts 95°
2026-04-19 04:18 33.48648 -88.49041 35240 ft 542 kts 88°
2026-04-19 04:18 33.49679 -88.40069 35156 ft 545 kts 84°
2026-04-19 04:19 33.50887 -88.31095 35146 ft 545 kts 84°
2026-04-19 04:19 33.52028 -88.22119 35125 ft 544 kts 85°
2026-04-19 04:20 33.53091 -88.13209 35112 ft 543 kts 85°
2026-04-19 04:20 33.54134 -88.04274 35078 ft 536 kts 85°
2026-04-19 04:21 33.55155 -87.95539 35075 ft 525 kts 85°
2026-04-19 04:21 33.56160 -87.86872 35089 ft 525 kts 85°
2026-04-19 04:22 33.57161 -87.78200 35089 ft 525 kts 85°
2026-04-19 04:22 33.58152 -87.69569 35087 ft 527 kts 85°
2026-04-19 04:23 33.59147 -87.60858 35091 ft 528 kts 85°
2026-04-19 04:23 33.60137 -87.52133 35090 ft 528 kts 85°
2026-04-19 04:24 33.61122 -87.43392 35088 ft 529 kts 85°
2026-04-19 04:24 33.62102 -87.34645 35093 ft 529 kts 85°
2026-04-19 04:25 33.63069 -87.25947 35091 ft 529 kts 85°
2026-04-19 04:25 33.64036 -87.17199 35109 ft 529 kts 85°
2026-04-19 04:26 33.64999 -87.08434 35122 ft 530 kts 85°
2026-04-19 04:26 33.65955 -86.99660 35128 ft 531 kts 85°
2026-04-19 04:27 33.66902 -86.90872 35129 ft 531 kts 86°
2026-04-19 04:27 33.67157 -86.82062 35142 ft 527 kts 95°
2026-04-19 04:28 33.66986 -86.73277 35139 ft 527 kts 96°
2026-04-19 04:28 33.66817 -86.64536 35135 ft 528 kts 95°
2026-04-19 04:29 33.66709 -86.55717 35111 ft 529 kts 94°
2026-04-19 04:29 33.66627 -86.46894 35110 ft 529 kts 94°
2026-04-19 04:30 33.66541 -86.38065 35121 ft 529 kts 94°
2026-04-19 04:30 33.66445 -86.29237 35097 ft 529 kts 95°
2026-04-19 04:31 33.66340 -86.20465 35119 ft 529 kts 95°
2026-04-19 04:31 33.66228 -86.11623 35088 ft 529 kts 95°
2026-04-19 04:32 33.66109 -86.02797 35098 ft 529 kts 95°
2026-04-19 04:32 33.65985 -85.93959 35107 ft 529 kts 95°
2026-04-19 04:33 33.65855 -85.85194 35110 ft 529 kts 95°
2026-04-19 04:33 33.65718 -85.76364 35112 ft 529 kts 95°
2026-04-19 04:34 33.65576 -85.67544 35104 ft 529 kts 95°
2026-04-19 04:34 33.65427 -85.58722 35097 ft 528 kts 95°
2026-04-19 04:35 33.65271 -85.49908 35092 ft 528 kts 95°
2026-04-19 04:35 33.65111 -85.41166 35059 ft 528 kts 95°
2026-04-19 04:36 33.64943 -85.32361 35074 ft 527 kts 95°
2026-04-19 04:36 33.64769 -85.23570 35133 ft 527 kts 95°
2026-04-19 04:37 33.64589 -85.14775 35138 ft 527 kts 95°
2026-04-19 04:37 33.64404 -85.06035 35140 ft 528 kts 95°
2026-04-19 04:38 33.64211 -84.97236 35120 ft 527 kts 95°
2026-04-19 04:38 33.64011 -84.88377 35101 ft 527 kts 95°
2026-04-19 04:39 33.63808 -84.79645 35078 ft 527 kts 95°
2026-04-19 04:39 33.63597 -84.70855 35061 ft 527 kts 95°
2026-04-19 04:40 33.63379 -84.62066 35056 ft 527 kts 95°
2026-04-19 04:40 33.63157 -84.53284 35063 ft 526 kts 95°
2026-04-19 04:41 33.62929 -84.44563 35065 ft 526 kts 95°
2026-04-19 04:41 33.62597 -84.37171 35065 ft 524 kts 98°
2026-04-19 04:42 33.61931 -84.28527 35039 ft 524 kts 98°
2026-04-19 04:42 33.61261 -84.19845 35055 ft 523 kts 98°
2026-04-19 04:43 33.60641 -84.11158 35037 ft 522 kts 98°
2026-04-19 04:43 33.60026 -84.02449 34411 ft 528 kts 98°
2026-04-19 04:44 33.59714 -83.98079 33837 ft 525 kts 98°
2026-04-19 04:44 33.59402 -83.93731 33393 ft 520 kts 98°
2026-04-19 04:44 33.59252 -83.89411 32904 ft 519 kts 86°
2026-04-19 04:44 33.59975 -83.85211 32576 ft 512 kts 72°
2026-04-19 04:45 33.61056 -83.81160 32147 ft 508 kts 72°
2026-04-19 04:45 33.62128 -83.77132 31703 ft 505 kts 72°
2026-04-19 04:45 33.63160 -83.73123 31275 ft 501 kts 73°
2026-04-19 04:45 33.64153 -83.69134 30859 ft 498 kts 74°
2026-04-19 04:46 33.65110 -83.65217 30450 ft 494 kts 74°
2026-04-19 04:46 33.66070 -83.61272 30016 ft 491 kts 74°
2026-04-19 04:46 33.67104 -83.57385 29520 ft 488 kts 66°
2026-04-19 04:46 33.68654 -83.53786 29092 ft 482 kts 58°
2026-04-19 04:47 33.70380 -83.50369 28645 ft 477 kts 57°
2026-04-19 04:47 33.72127 -83.47003 28200 ft 473 kts 56°
2026-04-19 04:47 33.73844 -83.43648 27761 ft 469 kts 57°
2026-04-19 04:47 33.75516 -83.40300 27347 ft 465 kts 57°
2026-04-19 04:48 33.77152 -83.36960 26932 ft 462 kts 58°
2026-04-19 04:48 33.78762 -83.33634 26534 ft 459 kts 58°
2026-04-19 04:48 33.80338 -83.30371 26119 ft 456 kts 58°
2026-04-19 04:48 33.81927 -83.27085 25703 ft 454 kts 57°
2026-04-19 04:49 33.83510 -83.23816 25292 ft 451 kts 57°
2026-04-19 04:49 33.85163 -83.20627 24873 ft 448 kts 54°
2026-04-19 04:49 33.86873 -83.17506 24460 ft 446 kts 53°
2026-04-19 04:49 33.88594 -83.14407 24038 ft 444 kts 53°
2026-04-19 04:50 33.90297 -83.11324 23649 ft 441 kts 53°
2026-04-19 04:50 33.91981 -83.08244 23173 ft 439 kts 53°
2026-04-19 04:50 33.93647 -83.05175 22741 ft 436 kts 54°
2026-04-19 04:50 33.95270 -83.02174 22325 ft 432 kts 54°
2026-04-19 04:51 33.96933 -82.99186 21927 ft 427 kts 48°
2026-04-19 04:51 33.99049 -82.96782 21577 ft 412 kts 31°
2026-04-19 04:51 34.01362 -82.94781 21214 ft 408 kts 31°
2026-04-19 04:51 34.03656 -82.92774 20825 ft 406 kts 31°
2026-04-19 04:52 34.05929 -82.90761 20441 ft 404 kts 32°
2026-04-19 04:52 34.08181 -82.88747 20061 ft 402 kts 32°
2026-04-19 04:52 34.10417 -82.86734 19677 ft 400 kts 32°
2026-04-19 04:52 34.12638 -82.84728 19323 ft 397 kts 32°
2026-04-19 04:53 34.14809 -82.82764 19000 ft 394 kts 32°
2026-04-19 04:53 34.16993 -82.80786 18636 ft 392 kts 32°
2026-04-19 04:53 34.19169 -82.78815 18276 ft 390 kts 33°
2026-04-19 04:53 34.21331 -82.76855 17853 ft 388 kts 33°
2026-04-19 04:54 34.23480 -82.74906 17462 ft 385 kts 33°
2026-04-19 04:54 34.25615 -82.72968 17090 ft 382 kts 33°
2026-04-19 04:54 34.27735 -82.71042 16736 ft 380 kts 33°
2026-04-19 04:54 34.29815 -82.69152 16366 ft 378 kts 33°
2026-04-19 04:55 34.31909 -82.67248 16004 ft 376 kts 33°
2026-04-19 04:55 34.33993 -82.65353 15642 ft 374 kts 33°
2026-04-19 04:55 34.36064 -82.63463 15283 ft 372 kts 34°
2026-04-19 04:55 34.38119 -82.61578 14933 ft 370 kts 34°
2026-04-19 04:56 34.40163 -82.59696 14576 ft 368 kts 34°
2026-04-19 04:56 34.42196 -82.57822 14226 ft 367 kts 34°
2026-04-19 04:56 34.44223 -82.55953 13863 ft 366 kts 34°
2026-04-19 04:56 34.46244 -82.54089 13488 ft 365 kts 34°
2026-04-19 04:57 34.48229 -82.52258 13119 ft 362 kts 34°
2026-04-19 04:57 34.50230 -82.50410 12759 ft 360 kts 35°
2026-04-19 04:57 34.52099 -82.48392 12377 ft 362 kts 48°
2026-04-19 04:57 34.53646 -82.46002 12043 ft 360 kts 54°
2026-04-19 04:58 34.55018 -82.43474 11717 ft 357 kts 55°
2026-04-19 04:58 34.56426 -82.41013 11333 ft 356 kts 53°
2026-04-19 04:58 34.57877 -82.38573 10965 ft 355 kts 53°
2026-04-19 04:58 34.59328 -82.36163 10631 ft 353 kts 53°
2026-04-19 04:59 34.60779 -82.33767 10308 ft 351 kts 53°
2026-04-19 04:59 34.62208 -82.31417 10168 ft 342 kts 53°
2026-04-19 04:59 34.63587 -82.29110 10018 ft 334 kts 54°
2026-04-19 04:59 34.64899 -82.26846 9725 ft 331 kts 54°
2026-04-19 05:00 34.66214 -82.24564 9415 ft 329 kts 54°
2026-04-19 05:00 34.67521 -82.22289 9110 ft 327 kts 55°
2026-04-19 05:00 34.68793 -82.20012 8826 ft 324 kts 58°
2026-04-19 05:00 34.69965 -82.17685 8534 ft 320 kts 59°
2026-04-19 05:01 34.71084 -82.15382 8282 ft 312 kts 59°
2026-04-19 05:01 34.72164 -82.13146 8014 ft 302 kts 60°
2026-04-19 05:01 34.73209 -82.10983 7816 ft 290 kts 60°
2026-04-19 05:01 34.74201 -82.08918 7580 ft 276 kts 59°
2026-04-19 05:02 34.75143 -82.06954 7357 ft 263 kts 55°
2026-04-19 05:02 34.76453 -82.05530 7090 ft 256 kts 18°
2026-04-19 05:02 34.78143 -82.05048 6922 ft 247 kts
2026-04-19 05:02 34.79836 -82.04678 6689 ft 248 kts
2026-04-19 05:03 34.81505 -82.04269 6448 ft 241 kts
2026-04-19 05:03 34.83120 -82.03836 6198 ft 234 kts
2026-04-19 05:03 34.84678 -82.03396 5967 ft 226 kts
2026-04-19 05:03 34.86182 -82.02955 5748 ft 220 kts
2026-04-19 05:04 34.87659 -82.02513 5555 ft 219 kts
2026-04-19 05:04 34.89134 -82.02064 5378 ft 219 kts
2026-04-19 05:04 34.90613 -82.01609 5157 ft 220 kts
2026-04-19 05:04 34.92099 -82.01150 4946 ft 221 kts
2026-04-19 05:05 34.93574 -82.00693 4729 ft 222 kts
2026-04-19 05:05 34.95056 -82.00256 4609 ft 215 kts
2026-04-19 05:05 34.96420 -82.00509 4472 ft 186 kts 322°
2026-04-19 05:05 34.97371 -82.01464 4428 ft 172 kts 303°
2026-04-19 05:06 34.98051 -82.02663 4386 ft 174 kts 296°
2026-04-19 05:06 34.98687 -82.03904 4147 ft 175 kts 296°
2026-04-19 05:06 34.99315 -82.05125 3915 ft 164 kts 296°
2026-04-19 05:06 34.99913 -82.06283 3817 ft 159 kts 296°
2026-04-19 05:07 35.00499 -82.07417 3746 ft 161 kts 296°
2026-04-19 05:07 35.01094 -82.08567 3679 ft 160 kts 296°
2026-04-19 05:07 35.01685 -82.09711 3629 ft 159 kts 296°
2026-04-19 05:07 35.02098 -82.10911 3572 ft 147 kts 268°
2026-04-19 05:08 35.01675 -82.11943 3563 ft 137 kts 233°
2026-04-19 05:08 35.00345 -82.13557 3187 ft 135 kts 223°
2026-04-19 05:08 34.99562 -82.14216 3102 ft 136 kts 219°
2026-04-19 05:09 34.98746 -82.14816 2992 ft 142 kts 216°
2026-04-19 05:09 34.97889 -82.15436 2750 ft 144 kts 218°
2026-04-19 05:09 34.97063 -82.16114 2485 ft 141 kts 220°
2026-04-19 05:09 34.96245 -82.16785 2149 ft 142 kts 219°
2026-04-19 05:10 34.95441 -82.17417 1976 ft 135 kts 218°
2026-04-19 05:10 34.94632 -82.18019 1923 ft 138 kts 218°
2026-04-19 05:10 34.93808 -82.18656 1743 ft 143 kts 216°
2026-04-19 05:10 34.92972 -82.19304 1567 ft 142 kts 214°
2026-04-19 05:11 34.92118 -82.19950 1300 ft 146 kts 213°
2026-04-19 05:11 34.91275 -82.20593 1101 ft 145 kts 213°
2026-04-19 05:11 34.90432 -82.21236 981 ft 139 kts 213°
2026-04-19 05:11 34.89704 -82.21788 963 ft 95 kts 212°
2026-04-19 05:12 34.89329 -82.22068 958 ft 32 kts 195°
2026-04-19 05:12 34.89154 -82.22079 956 ft 20 kts 180°
2026-04-19 05:12 34.89062 -82.22071 956 ft 11 kts 168°
2026-04-19 05:12 34.89002 -82.22013 956 ft 9 kts 112°
2026-04-19 05:13 34.89028 -82.21948 957 ft 7 kts 53°
2026-04-19 05:13 34.89021 -82.21896 956 ft 2 kts 121°
2026-04-19 05:13 34.89011 -82.21878 953 ft 0 kts 123°